THOR ABLESTAR DEB, 543

Orbit data source: Space-Track

THOR ABLESTAR DEB, 543 is space debris in LEO originally from a launch on Thu, 29 Jun 1961 UTC launched from the Air Force Eastern Test Range (AFETR). Debris objects in space refer to the collection of defunct objects orbiting the Earth. Examples of debris include non-operational satellites, rocket bodies, and fragments generated from explosions, collisions, or faulty payload assembly.

Loading next visibility...
Identifier
543, 1961-015GC
Orbit
LEO
Country
Flag of USUS
Related business
Manufacturer
Unknown
Mission
Spacecraft
Bus & Motor
Unknown
Mass
Unknown
Launch date (UTC)
1961-06-29 (65 years ago)
Launch vehicle
Unknown
Launch site
Air Force Eastern Test Range (AFETR)
Object type
Payload
Rocket body
Debris
Shape & HBR
Unknown shape, 0.1 m
Radar Cross Section
Medium (>0.1 m² and <1 m²)

Expand to show TLE details & history
Last TLE update: 22 hours ago

TLE from 22 hours ago
0 THOR ABLESTAR DEB
1 00543U 61015GC  26206.50978337  .00000110  00000-0  20430-3 0  9997
2 00543  67.0290 215.0213 0068781 180.1668 259.2808 13.69249003241943
Epoch: 2026-07-25T12:14Z
TLE epoch observation values (Epoch: 2026-07-25T12:14:05.283Z)
Latitude
64.63452°
Longitude
151.08283°
Altitude
1,022.377 km
Speed
7.342 km/s
True Right ascension
18h 31m 18s
True Declination
64° 30' 21"
Sunlit
Object was in daylight at epoch
Visualization orbit readout
Latitude
Unknown
Longitude
Unknown
Altitude
Unknown
Speed
Unknown
Apparent Right ascension
Unknown
Apparent Declination
Unknown
Sunlit
N/A
Visualization observer readout
Local Sidereal Time
23:02:26
Azimuth
Unknown
Elevation
Unknown
Doppler factor
Unknown
Orbital elements
Apogee altitude
1,051.405 km
Perigee altitude
949.901 km
Semi-major axis
7,378.79 km
Eccentricity
0.00688
Inclination
67.029°
RAAN
215.0213°
Arg. of periapsis
180.1668°
True anomaly
258.50764°
Mean anomaly
259.2808°
Eccentric anomaly
258.89409°
Mean motion
3.42425 °/min
Orbital period
105.13 mins
BSTAR
0.0002043
Loading maneuver chart data...
Computing Atmospheric mass density...

Documentation

Showing up to 5 results
|